Vorticity
5 5 6 7 7 6 5 6 6 7 6 6 7 7 7 9 9 8 8 7 7 7 7 8 8 7 8 6 6 7 7 6 6 5 5 5 5 7 7 6 6 6
5 4 5 6 5 4 6 8 7 5 5 6 7 5 6 8 8 9 9 8 7 7 7 7 7 7 8 8 7 8 7 5 6 6 5 6 5 5 6 5 6 7
4 4 4 5 3 4 6 7 6 5 6 6 5 5 6 7 6 7 8 8 7 7 8 7 7 7 7 8 7 7 8 7 7 8 7 7 6 5 5 6 8 9
6 5 4 3 3 4 5 5 5 6 6 5 5 6 7 6 5 6 7 8 8 9 8 7 6 7 6 6 7 6 7 8 7 8 8 7 8 8 6 6 8 9
7 7 6 5 4 4 5 5 5 5 6 6 6 7 8 7 6 6 6 6 9 10 10 8 6 6 6 6 7 6 6 7 6 7 8 7 8 9 7 7 6 6
6 7 7 7 6 5 5 6 5 6 7 6 6 7 7 7 7 7 6 5 6 8 10 9 6 6 7 6 6 5 5 6 6 7 9 8 8 8 8 8 7 6
6 6 6 7 7 6 6 7 7 7 6 5 6 7 7 8 7 6 7 6 6 7 9 10 8 6 7 7 6 6 5 5 6 6 7 7 7 8 8 7 6 7
8 6 6 6 6 8 8 7 7 7 5 5 5 5 6 7 8 7 7 6 6 6 6 8 9 9 9 9 8 6 5 6 6 6 6 6 6 7 7 7 7 7
10 9 7 6 5 7 7 7 8 7 5 6 5 5 5 5 6 7 7 7 6 6 6 6 8 9 9 9 9 7 5 6 6 6 6 7 7 7 7 7 7 6
10 8 7 9 8 7 7 7 9 9 7 7 7 7 5 3 4 6 6 6 6 6 7 7 8 8 7 7 9 9 7 6 6 6 7 7 7 8 8 8 7 7
8 8 6 8 7 7 8 7 8 9 9 9 9 10 8 5 4 4 3 4 5 6 6 6 6 6 6 6 8 9 9 8 6 6 8 8 6 6 7 7 7 7
8 11 9 8 7 7 8 8 8 8 7 8 7 7 9 9 7 5 4 4 4 4 4 5 7 7 7 6 6 7 8 7 6 5 6 7 6 5 6 6 6 6
9 12 11 9 9 9 11 11 10 9 7 7 7 6 7 8 8 7 6 6 6 6 5 6 7 7 7 6 6 6 7 7 7 6 5 6 5 5 5 6 7 6
9 9 8 8 9 9 10 9 9 10 9 9 10 11 11 10 10 9 8 7 6 5 5 6 7 6 6 6 6 6 6 6 8 8 8 8 6 6 6 7 7 6
7 7 6 7 10 9 9 9 8 8 8 8 8 10 12 12 11 10 10 10 8 6 5 5 6 6 5 5 5 6 6 5 6 7 8 9 8 7 6 8 9 8
-3 5 7 6 9 9 9 10 10 10 9 8 6 6 7 9 10 9 9 10 10 9 6 4 5 6 5 5 5 6 6 6 6 6 6 7 8 8 7 8 9 8
-0 5 7 5 5 6 6 6 8 10 12 11 10 9 7 8 9 8 7 7 9 11 9 6 6 5 5 5 5 5 5 5 5 6 6 5 4 6 8 7 6 6
4 5 6 5 5 4 4 4 6 8 10 11 12 11 11 11 10 9 11 10 7 8 10 9 6 5 6 6 6 6 6 5 5 4 5 5 4 5 8 8 8 8
4 4 5 6 5 5 5 4 4 5 6 7 7 7 8 10 9 9 13 12 5 4 10 11 8 6 6 5 6 6 6 7 7 5 6 7 6 6 6 5 7 8
14 12 13 12 7 4 5 5 5 4 4 3 3 3 3 4 4 3 4 6 5 5 9 13 13 12 11 9 6 5 6 6 4 5 8 6 3 7 7 4 4 7
15 20 27 28 18 7 3 5 6 5 3 4 6 4 -0 -1 4 5 4 5 6 5 8 11 10 9 11 13 11 9 10 9 7 9 10 3 -0 6 10 6 3 5
9 16 26 34 32 20 7 3 5 5 2 3 5 4 -1 -4 -0 4 5 7 7 4 3 5 3 2 8 12 10 7 5 5 10 13 9 5 5 4 5 8 8 5
9 10 12 19 30 31 19 10 10 11 11 11 12 12 12 11 12 9 4 5 8 2 -2 0 3 3 4 4 2 1 -1 -2 6 9 5 6 10 5 0 5 10 9
10 10 7 5 11 17 18 18 18 16 14 14 16 21 25 27 28 23 12 6 5 4 2 3 3 -0 -1 -0 0 2 2 1 3 4 3 6 12 13 13 12 9 6
7 10 10 8 6 5 6 10 11 11 8 2 2 9 17 23 28 30 28 19 12 9 4 -1 -0 1 1 0 -1 -1 2 3 4 3 3 3 4 8 13 15 12 8
5 6 8 8 8 7 6 6 7 11 11 7 4 2 3 7 12 19 25 26 23 19 9 1 2 3 2 5 9 9 6 6 7 7 8 10 11 12 13 15 16 10
Height
5949 5950 5951 5952 5953 5953 5954 5955 5956 5956 5957 5958 5958 5959 5959 5959 5960 5960 5960 5960 5960 5960 5961 5961 5962 5962 5962 5962 5962 5962 5962 5963 5963 5963 5963 5964 5964 5964 5965 5965 5965 5965
5948 5949 5950 5952 5952 5952 5953 5954 5955 5955 5956 5957 5957 5958 5958 5959 5959 5960 5959 5959 5960 5960 5961 5961 5961 5962 5962 5962 5962 5962 5962 5962 5962 5962 5963 5963 5963 5963 5964 5964 5964 5965
5947 5948 5949 5951 5951 5952 5953 5954 5954 5955 5955 5956 5957 5957 5958 5958 5959 5959 5959 5959 5959 5960 5960 5961 5961 5961 5962 5962 5962 5962 5962 5962 5962 5962 5962 5963 5963 5963 5963 5963 5963 5964
5945 5947 5948 5949 5950 5951 5952 5953 5953 5954 5955 5956 5956 5957 5957 5957 5958 5958 5958 5958 5959 5959 5960 5960 5961 5961 5961 5961 5961 5961 5962 5962 5962 5962 5962 5962 5962 5962 5963 5963 5963 5963
5944 5945 5946 5948 5949 5950 5951 5951 5952 5953 5954 5955 5956 5956 5957 5957 5957 5958 5958 5958 5958 5959 5959 5960 5960 5960 5961 5961 5961 5961 5961 5961 5961 5961 5961 5961 5962 5962 5962 5963 5963 5963
5942 5943 5945 5946 5947 5948 5949 5950 5950 5952 5953 5954 5954 5955 5956 5957 5957 5957 5957 5957 5957 5958 5958 5959 5959 5960 5960 5961 5961 5961 5961 5961 5961 5961 5961 5961 5961 5961 5962 5962 5962 5962
5941 5942 5943 5945 5946 5947 5948 5949 5949 5951 5952 5952 5953 5954 5955 5956 5956 5956 5956 5956 5956 5957 5957 5958 5959 5959 5959 5960 5960 5960 5960 5961 5961 5961 5961 5961 5961 5961 5961 5961 5961 5962
5939 5940 5941 5942 5944 5945 5946 5947 5948 5949 5950 5951 5952 5953 5953 5954 5954 5955 5955 5955 5955 5956 5956 5957 5958 5958 5959 5959 5959 5959 5959 5960 5960 5960 5960 5960 5960 5960 5960 5960 5961 5961
5937 5938 5939 5940 5941 5943 5944 5945 5946 5947 5948 5949 5951 5951 5952 5952 5953 5953 5954 5954 5954 5955 5955 5956 5956 5957 5957 5958 5958 5958 5958 5959 5959 5959 5960 5960 5960 5960 5960 5960 5960 5960
5935 5936 5938 5939 5940 5941 5942 5944 5945 5946 5947 5948 5949 5950 5950 5951 5951 5951 5952 5953 5953 5954 5954 5954 5955 5956 5956 5957 5957 5957 5957 5958 5958 5958 5958 5959 5959 5959 5959 5959 5959 5959
5932 5934 5935 5937 5938 5939 5941 5942 5943 5944 5945 5946 5947 5947 5948 5949 5949 5949 5950 5951 5952 5952 5953 5953 5954 5954 5955 5955 5956 5956 5956 5956 5957 5957 5957 5958 5958 5958 5958 5958 5958 5958
5930 5931 5933 5934 5935 5937 5938 5940 5941 5942 5942 5943 5944 5945 5946 5947 5947 5947 5948 5949 5950 5951 5951 5952 5952 5953 5953 5954 5954 5954 5955 5955 5955 5956 5956 5956 5956 5956 5956 5956 5957 5957
5928 5929 5930 5931 5932 5934 5935 5937 5938 5939 5940 5941 5942 5943 5944 5944 5945 5945 5946 5947 5948 5949 5950 5951 5951 5952 5952 5952 5953 5953 5953 5953 5954 5954 5954 5954 5954 5955 5955 5955 5956 5956
5927 5927 5928 5928 5929 5931 5932 5933 5934 5936 5937 5938 5940 5941 5942 5942 5943 5943 5944 5945 5946 5947 5948 5949 5950 5950 5950 5951 5951 5951 5951 5952 5952 5952 5953 5953 5953 5953 5954 5954 5955 5955
5924 5925 5925 5926 5927 5928 5929 5930 5930 5932 5933 5934 5935 5936 5938 5939 5940 5941 5941 5942 5944 5945 5946 5947 5947 5948 5948 5949 5949 5949 5949 5950 5950 5951 5951 5952 5952 5952 5952 5953 5954 5954
5920 5922 5923 5924 5925 5926 5927 5928 5928 5929 5930 5931 5932 5933 5934 5935 5936 5937 5938 5939 5941 5943 5944 5945 5945 5945 5946 5946 5947 5947 5948 5948 5948 5949 5949 5950 5951 5951 5951 5952 5953 5953
5917 5919 5920 5922 5923 5924 5925 5925 5926 5927 5928 5928 5929 5930 5931 5932 5932 5933 5935 5937 5939 5941 5942 5942 5942 5942 5943 5944 5944 5945 5945 5946 5946 5946 5947 5948 5949 5950 5950 5951 5951 5951
5914 5916 5918 5919 5921 5922 5923 5923 5923 5924 5925 5926 5927 5928 5929 5930 5930 5931 5933 5935 5935 5936 5937 5938 5938 5939 5940 5941 5942 5942 5943 5943 5944 5944 5945 5946 5947 5948 5949 5948 5948 5948
5911 5913 5915 5916 5918 5919 5920 5921 5921 5921 5922 5923 5925 5926 5927 5928 5929 5929 5931 5932 5932 5932 5934 5935 5936 5937 5937 5938 5938 5939 5940 5941 5941 5942 5944 5944 5944 5945 5945 5946 5946 5946
5909 5910 5911 5912 5914 5916 5917 5918 5918 5919 5920 5921 5922 5923 5924 5926 5927 5927 5928 5929 5930 5930 5931 5932 5933 5934 5935 5935 5936 5936 5937 5938 5938 5940 5942 5942 5941 5941 5941 5942 5943 5943
5906 5907 5908 5909 5911 5912 5913 5914 5915 5916 5917 5917 5918 5920 5921 5923 5924 5924 5924 5925 5927 5928 5929 5929 5930 5931 5932 5933 5933 5934 5934 5934 5935 5937 5938 5938 5937 5937 5937 5938 5939 5939
5903 5904 5905 5906 5908 5909 5910 5912 5912 5913 5914 5915 5915 5916 5918 5920 5921 5921 5921 5922 5923 5925 5926 5926 5927 5928 5928 5929 5930 5930 5931 5931 5932 5933 5934 5933 5933 5933 5933 5934 5934 5935
5900 5901 5902 5903 5904 5905 5907 5909 5909 5910 5911 5912 5912 5913 5914 5915 5916 5917 5918 5918 5919 5921 5923 5923 5923 5924 5925 5926 5926 5927 5926 5927 5928 5929 5929 5928 5929 5929 5930 5930 5931 5932
5898 5899 5900 5901 5902 5903 5904 5906 5906 5907 5908 5908 5909 5910 5910 5910 5911 5912 5913 5914 5915 5917 5918 5919 5919 5920 5921 5921 5922 5922 5922 5922 5923 5924 5925 5925 5925 5925 5925 5926 5927 5928
5896 5897 5898 5899 5900 5901 5902 5903 5903 5904 5905 5905 5906 5906 5906 5907 5907 5907 5908 5909 5910 5912 5913 5914 5915 5916 5917 5917 5917 5917 5917 5917 5918 5919 5919 5920 5920 5920 5920 5921 5922 5923
5894 5894 5895 5896 5897 5898 5899 5900 5901 5901 5902 5902 5903 5903 5903 5904 5904 5904 5905 5905 5906 5907 5909 5910 5911 5912 5912 5912 5912 5912 5912 5913 5913 5913 5914 5914 5915 5915 5915 5915 5916 5917